Weather History for Naples, FL

Change the Weather History Date:

Thursday, November 15, 2012

  Actual Average Record
Temperature  
Mean Temperature 72 °F 72 °F  
Max Temperature 81 °F 81 °F 91 °F (1993)
Min Temperature 63 °F 63 °F 40 °F (1975)
Degree Days  
Heating Degree Days 0 0  
Month to date heating degree days 3 0  
Since 1 July heating degree days 4 1  
Cooling Degree Days 7 7  
Month to date cooling degree days 79 131  
Year to date cooling degree days 3920 3726  
Growing Degree Days 21 (Base 50)    
Moisture  
Dew Point 65 °F    
Average Humidity 79    
Maximum Humidity 100    
Minimum Humidity 58    
Precipitation  
Precipitation 0.00 in 0.06 in 1.57 in (1994)
Month to date precipitation 0.12 1.23  
Year to date precipitation 36.15 49.63  
Snow  
Snow 0.00 in - - ()
Month to date snowfall 0.0  
Since 1 July snowfall 0.0  
Since 1 September snowfall 0.0  
Snow Depth 0.00 in    
Sea Level Pressure  
Sea Level Pressure 30.08 in    
Wind  
Wind Speed 6 mph (NNE)    
Max Wind Speed 14 mph    
Max Gust Speed 17 mph    
Visibility 8 miles    
Events      
T = Trace of Precipitation, MM = Missing Value Source: NWS Daily Summary

Daily Weather History Graph

Daily Weather History Graph

Search for Another Location

Airport:

Trip Planner

Search our weather history database for the weather conditions in past years. The results will help you decide how hot, cold, wet, or windy it might be!

Date:

Astronomy

Nov. 15, 2012 Rise Set
Actual Time 6:45 AM EST 5:37 PM EST
Civil Twilight 6:21 AM EST 6:01 PM EST
Nautical Twilight 5:53 AM EST 6:29 PM EST
Astronomical Twilight 5:26 AM EST 6:57 PM EST
Moon 8:33 AM EST (11/15) 7:33 PM EST (11/15)
Length of Visible Light 11h 40m
Length of Day
10h 51m
Waxing Crescent, 5% of the Moon is Illuminated
Nov 15
Waxing Crescent
Nov 20
First Quarter
Nov 28
Full
Dec 6
Last Quarter
Dec 13
New

Hourly Weather History & Observations

Time (EST) Temp. Dew Point Humidity Pressure Visibility Wind Dir Wind Speed Gust Speed Precip Events Conditions
12:53 AM 69.1 °F 66.0 °F 90% 30.07 in 10.0 mi NE 4.6 mph - N/A   Overcast
1:53 AM 69.1 °F 66.0 °F 90% 30.07 in 10.0 mi North 4.6 mph - N/A   Overcast
2:53 AM 66.9 °F 66.0 °F 97% 30.05 in 10.0 mi NNE 5.8 mph - N/A   Partly Cloudy
3:53 AM 66.0 °F 64.9 °F 96% 30.05 in 10.0 mi NE 5.8 mph - N/A   Clear
4:53 AM 64.9 °F 64.9 °F 100% 30.06 in 10.0 mi NE 4.6 mph - N/A   Clear
5:53 AM 64.0 °F 64.0 °F 100% 30.06 in 9.0 mi ENE 5.8 mph - N/A   Clear
6:26 AM 64.4 °F 64.4 °F 100% 30.07 in 7.0 mi ENE 5.8 mph - N/A   Scattered Clouds
6:32 AM 64.4 °F 64.4 °F 100% 30.07 in 2.5 mi ENE 5.8 mph - N/A   Mostly Cloudy
6:40 AM 64.4 °F 64.4 °F 100% 30.07 in 1.2 mi NE 4.6 mph - N/A   Mostly Cloudy
6:53 AM 63.0 °F 63.0 °F 100% 30.07 in 1.2 mi NE 3.5 mph - N/A   Overcast
7:06 AM 64.4 °F 64.4 °F 100% 30.07 in 0.8 mi NE 3.5 mph - N/A   Overcast
7:28 AM 64.4 °F 64.4 °F 100% 30.08 in 2.0 mi NE 4.6 mph - N/A   Overcast
7:49 AM 64.4 °F 64.4 °F 100% 30.09 in 4.0 mi NE 5.8 mph - N/A   Scattered Clouds
7:53 AM 64.9 °F 64.9 °F 100% 30.09 in 4.0 mi NE 4.6 mph - N/A   Scattered Clouds
8:53 AM 70.0 °F 66.9 °F 90% 30.10 in 10.0 mi NE 5.8 mph - N/A   Clear
9:53 AM 75.9 °F 66.0 °F 71% 30.12 in 10.0 mi ENE 4.6 mph - N/A   Clear
10:53 AM 79.0 °F 63.0 °F 58% 30.11 in 10.0 mi North 4.6 mph - N/A   Clear
11:53 AM 79.0 °F 66.0 °F 64% 30.10 in 10.0 mi WNW 9.2 mph - N/A   Scattered Clouds
12:53 PM 78.1 °F 66.9 °F 68% 30.07 in 10.0 mi WNW 11.5 mph - N/A   Scattered Clouds
1:53 PM 78.1 °F 68.0 °F 71% 30.05 in 10.0 mi WNW 9.2 mph - N/A   Scattered Clouds
2:53 PM 77.0 °F 66.0 °F 69% 30.04 in 10.0 mi WNW 10.4 mph - N/A   Scattered Clouds
3:53 PM 75.9 °F 66.9 °F 74% 30.04 in 10.0 mi NW 11.5 mph - N/A   Scattered Clouds
4:53 PM 75.0 °F 68.0 °F 79% 30.04 in 10.0 mi NW 8.1 mph - N/A   Partly Cloudy
5:53 PM 73.0 °F 66.9 °F 81% 30.05 in 9.0 mi NNW 5.8 mph - N/A   Clear
6:53 PM 72.0 °F 66.9 °F 84% 30.07 in 9.0 mi NNW 3.5 mph - N/A   Clear
7:53 PM 71.1 °F 66.0 °F 84% 30.08 in 9.0 mi Calm Calm - N/A   Clear
8:53 PM 70.0 °F 66.0 °F 87% 30.09 in 9.0 mi NNE 4.6 mph - N/A   Clear
9:53 PM 68.0 °F 64.9 °F 90% 30.09 in 9.0 mi NE 8.1 mph - N/A   Clear
10:53 PM 66.9 °F 64.0 °F 90% 30.09 in 10.0 mi NE 8.1 mph - N/A   Scattered Clouds
11:03 PM 66.2 °F 64.4 °F 94% 30.09 in 10.0 mi NE 9.2 mph - N/A   Mostly Cloudy
11:14 PM 66.2 °F 64.4 °F 94% 30.09 in 10.0 mi NE 10.4 mph - N/A   Scattered Clouds
11:41 PM 66.2 °F 64.4 °F 94% 30.09 in 9.0 mi NE 13.8 mph - N/A   Scattered Clouds
11:51 PM 66.2 °F 64.4 °F 94% 30.09 in 9.0 mi NE 8.1 mph - N/A   Mostly Cloudy
11:53 PM 66.0 °F 64.9 °F 96% 30.09 in 9.0 mi NE 8.1 mph - N/A   Mostly Cloudy